TimeEDT,TemperatureF,Dew PointF,Humidity,Sea Level PressureIn,VisibilityMPH,Wind Direction,Wind SpeedMPH,Gust SpeedMPH,PrecipitationIn,Events,Conditions,WindDirDegrees,DateUTC
12:54 AM,46.9,44.1,90,30.14,10.0,NNE,5.8,-,N/A,,Mostly Cloudy,30,2012-10-10 04:54:00
1:32 AM,46.4,42.8,87,30.12,10.0,NNE,5.8,-,N/A,,Overcast,30,2012-10-10 05:32:00
1:45 AM,46.4,42.8,87,30.12,10.0,NNE,5.8,-,N/A,,Overcast,30,2012-10-10 05:45:00
1:54 AM,46.9,43.0,86,30.13,10.0,NNE,5.8,-,N/A,,Overcast,30,2012-10-10 05:54:00
2:54 AM,46.9,43.0,86,30.11,10.0,NE,6.9,-,N/A,,Overcast,40,2012-10-10 06:54:00
3:14 AM,46.4,44.6,93,30.09,2.5,NNE,4.6,-,N/A,,Overcast,30,2012-10-10 07:14:00
3:54 AM,46.0,45.0,96,30.09,2.5,NE,4.6,-,N/A,,Overcast,40,2012-10-10 07:54:00
4:29 AM,46.4,44.6,93,30.07,1.8,NNE,3.5,-,N/A,,Overcast,30,2012-10-10 08:29:00
4:54 AM,46.9,46.0,97,30.09,1.0,North,4.6,-,N/A,,Mist,10,2012-10-10 08:54:00
5:41 AM,46.4,46.4,100,30.06,0.5,NE,3.5,-,N/A,Fog,Fog,40,2012-10-10 09:41:00
5:54 AM,46.9,46.0,97,30.06,0.2,NE,4.6,-,N/A,Fog,Fog,50,2012-10-10 09:54:00
6:07 AM,46.4,46.4,100,30.04,0.2,ENE,5.8,-,N/A,Fog,Fog,60,2012-10-10 10:07:00
6:20 AM,46.4,46.4,100,30.04,0.2,ENE,4.6,-,N/A,Fog,Fog,60,2012-10-10 10:20:00
6:54 AM,48.0,46.9,96,30.06,0.2,NE,3.5,-,N/A,Fog,Fog,40,2012-10-10 10:54:00
7:54 AM,48.9,48.0,97,30.05,0.2,ENE,4.6,-,0.01,Fog-Rain,Light Rain,60,2012-10-10 11:54:00
8:23 AM,48.2,48.2,100,30.03,0.2,NE,4.6,-,0.02,Fog-Rain,Light Rain,50,2012-10-10 12:23:00
8:35 AM,48.2,48.2,100,30.03,0.2,NE,3.5,-,N/A,Fog-Rain,Light Rain,50,2012-10-10 12:35:00
8:54 AM,48.9,48.0,97,30.04,0.2,ENE,6.9,-,0.02,Fog-Rain,Light Rain,60,2012-10-10 12:54:00
9:54 AM,50.0,50.0,100,30.01,0.2,ENE,3.5,-,0.01,Fog,Fog,60,2012-10-10 13:54:00
10:54 AM,51.1,50.0,96,29.98,0.2,ENE,6.9,-,0.02,Fog,Fog,70,2012-10-10 14:54:00
11:43 AM,51.8,51.8,100,29.93,0.2,East,5.8,-,0.03,Fog-Rain,Light Rain,90,2012-10-10 15:43:00
11:54 AM,53.1,52.0,96,29.93,0.2,East,5.8,-,0.04,Fog-Rain,Light Rain,90,2012-10-10 15:54:00
12:09 PM,53.6,51.8,94,29.91,0.2,East,5.8,-,0.01,Fog-Rain,Light Rain,80,2012-10-10 16:09:00
12:54 PM,54.0,53.1,97,29.90,0.2,East,5.8,-,0.05,Fog-Rain,Light Rain,90,2012-10-10 16:54:00
1:54 PM,55.0,55.0,100,29.85,0.2,East,6.9,-,0.07,Fog-Rain,Light Rain,90,2012-10-10 17:54:00
2:54 PM,55.9,55.9,100,29.81,0.2,East,3.5,-,0.06,Fog-Rain,Light Rain,90,2012-10-10 18:54:00
3:54 PM,57.9,57.0,97,29.80,0.2,SW,8.1,-,0.07,Rain,Rain,220,2012-10-10 19:54:00
4:04 PM,57.2,57.2,100,29.78,2.5,Calm,Calm,-,0.02,Rain,Light Rain,0,2012-10-10 20:04:00
4:15 PM,57.2,57.2,100,29.77,2.5,SSW,3.5,-,0.02,,Overcast,200,2012-10-10 20:15:00
4:47 PM,57.2,57.2,100,29.76,10.0,SSW,6.9,-,0.02,,Overcast,210,2012-10-10 20:47:00
4:54 PM,57.9,57.0,97,29.77,10.0,SSW,4.6,-,0.02,,Overcast,210,2012-10-10 20:54:00
5:08 PM,57.2,57.2,100,29.76,10.0,SW,5.8,-,N/A,,Mostly Cloudy,230,2012-10-10 21:08:00
5:54 PM,57.9,55.0,90,29.75,10.0,WSW,11.5,-,N/A,,Partly Cloudy,250,2012-10-10 21:54:00
6:54 PM,55.9,54.0,93,29.75,10.0,WSW,10.4,18.4,N/A,,Scattered Clouds,250,2012-10-10 22:54:00
7:20 PM,55.4,53.6,94,29.74,10.0,WSW,9.2,-,N/A,,Mostly Cloudy,250,2012-10-10 23:20:00
7:54 PM,55.0,53.1,93,29.75,10.0,West,10.4,18.4,N/A,,Scattered Clouds,260,2012-10-10 23:54:00
8:54 PM,54.0,51.1,90,29.77,10.0,West,12.7,-,N/A,,Clear,270,2012-10-11 00:54:00
9:54 PM,53.1,51.1,93,29.78,10.0,WSW,9.2,-,N/A,,Clear,250,2012-10-11 01:54:00
10:37 PM,51.8,42.8,71,29.80,10.0,WNW,19.6,36.8,N/A,,Mostly Cloudy,290,2012-10-11 02:37:00
10:54 PM,50.0,41.0,71,29.82,10.0,WNW,16.1,32.2,N/A,,Overcast,290,2012-10-11 02:54:00
11:54 PM,48.9,39.0,69,29.84,10.0,West,15.0,26.5,N/A,,Mostly Cloudy,280,2012-10-11 03:54:00